Location: Bijele Vode
(45.2833°N, 16.2000°E)
Time: 01:02:13
(UTC+00:00)

Lacrosse 5 rocket - Pass Details

Date: 17 January 2021
Orbit: 465 x 630 km, 57.0° (Epoch: 06 March)

Event Time Altitude Azimuth Distance (km) Brightness Sun altitude
Exits shadow 05:34:00 10° 321° (NW) 1,778 3.4 -9.7°
Reaches altitude 10° 05:34:04 10° 321° (NW) 1,749 3.4 -9.7°
Maximum altitude 05:37:45 38° 31° (NNE) 777 2.2 -9.1°
Drops below altitude 10° 05:41:16 10° 101° (E) 1,665 5.4 -8.5°
Sets 05:43:29 0° 109° (ESE) 2,523 7.3 -8.2°
